Location: Borgo
(42.3939°N, 9.2791°E)
Time: 01:02:50
(UTC+00:00)

Meteor 1-18 Rocket - Pass Details

Date: 27 February 2020
Orbit: 836 x 909 km, 81.2° (Epoch: 05 April)

Event Time Altitude Azimuth Distance (km) Brightness Sun altitude
Rises 18:31:51 0° 349° (N) 3,537 7.6 -16.0°
Reaches altitude 10° 18:34:20 10° 349° (N) 2,585 6.9 -16.4°
Maximum altitude 18:40:14 85° 263° (W) 899 4.3 -17.5°
Drops below altitude 10° 18:46:00 10° 174° (S) 2,523 6.6 -18.6°
Sets 18:48:24 0° 174° (S) 3,445 7.3 -19.0°
